Regional Weather Roundup
Issued by NWS Green Bay, WI

Home | Current Version | Previous Version | Graphics & Text | Print | Product List | Glossary Off
Versions: 1 2 3 4 5 6 7 8 9 10 11 12 13 14 15 16 17 18 19 20 21 22 23 24 25 26 27 28 29 30 31 32 33 34 35 36 37 38 39 40 41 42 43 44 45 46 47 48 49 50

000
ASUS43 KGRB 210711
RWRGRB

NORTH-CENTRAL AND NORTHEAST WISCONSIN REGIONAL WEATHER ROUNDUP
NATIONAL WEATHER SERVICE GREEN BAY WI
100 AM CST SUN JAN 21 2018

WIZ005-009-010>012-018-019-210800-
NORTH CENTRAL WISCONSIN

CITY           SKY/WX    TMP DP  RH WIND       PRES   REMARKS
IRONWOOD       FAIR      29  27  92 SW5       29.92F
MANITOWISH WTR FAIR      22  22 100 CALM      29.91S
ARBOR VITAE    MOCLDY    29  28  96 CALM      29.91S
EAGLE RIVER    FAIR      26  26 100 CALM      29.91S FOG
LAND O LAKES   MOCLDY    24  23  97 CALM      29.93R
RHINELANDER    CLOUDY    32  30  92 W3        29.92S
PHILLIPS       CLOUDY    29  29 100 CALM      29.92S
ANTIGO         CLOUDY    28  28  98 CALM      29.94R
TOMAHAWK       CLOUDY    31  29  92 CALM      29.92F
MERRILL        CLOUDY    30  30  98 CALM      29.94S
$$

WIZ013-073-210800-
NORTHEAST WISCONSIN

CITY           SKY/WX    TMP DP  RH WIND       PRES   REMARKS
IRON MOUNTAIN  MOCLDY    26  23  88 CALM      29.92R
MARINETTE      FAIR      33  30  88 SW5       29.96R
OCONTO         FAIR      30  29  93 CALM      29.96R
$$

WIZ017-030-035>037-045-210800-
CENTRAL WISCONSIN

CITY           SKY/WX    TMP DP  RH WIND       PRES   REMARKS
MEDFORD        MOCLDY    30  28  94 CALM      29.91F
WAUSAU         MOCLDY    29  28  96 CALM      29.92S
MOSINEE        CLOUDY    32  32 100 CALM      29.94F
MARSHFIELD     CLOUDY    31  29  92 CALM      29.92S
WISC RAPIDS    MOCLDY    28  25  88 CALM      29.94F FOG
STEVENS POINT  MOCLDY    26  26 100 CALM      29.95S FOG
WAUPACA        FAIR      29  27  90 CALM      29.95S
SHAWANO        FAIR      33  30  89 CALM      29.95R
CLINTONVILLE   FAIR      28  27  93 CALM      29.95R FOG
WAUTOMA        MOCLDY    25  23  92 CALM      29.96R
$$

WIZ038-039-048-051-210800-
FOX VALLEY

CITY           SKY/WX    TMP DP  RH WIND       PRES   REMARKS
NWS GREEN BAY  FAIR      33  29  85 S3        29.96R
APPLETON       FAIR      32  28  86 CALM      29.94S
OSHKOSH        FAIR      32  29  88 CALM      29.95R
FOND DU LAC    FAIR      29  25  85 CALM      29.95S
$$

WIZ022-050-052-210800-
EAST CENTRAL WISCONSIN

CITY           SKY/WX    TMP DP  RH WIND       PRES   REMARKS
EPHRAIM        CLOUDY    33  29  86 CALM      29.95R
WASHINGTON ISL FAIR      32  31  93 CALM      29.95R
STURGEON BAY   FAIR      34  30  85 S5        29.97R
MANITOWOC      FAIR      28  26  92 CALM      29.97S FOG
SHEBOYGAN      FAIR      28  27  96 CALM      29.95S FOG
$$

LMZ563-521-522-541>543-210800-
LAKESHORE

STATION/POSITION TIME  TEMP    WIND        PRES    VSBY  WAVE
                       AIR SEA DIR/SP/G                  HT/PER
                 (UTC) (F)     (DEG/KT/KT) (MB)    (MI)  (FT/S)
SHEBOYGAN LKSHOR 0700   33     210/  1/  2 1015.0R
KEWAUNEE LKSHORE 0642   33      CALM  /  2 1013.9R
NORTHPORT PIER   0702   34     170/  1/  5 1014.6
SISTER BAY LKSHO 0620   35     150/  6/  7   N/A
MENOMINEE LKSHOR 0636   33     360/ 10/ 20 1014.0R
$$




USA.gov is the U.S. government's official web portal to all federal, state and local government web resources and services.